Hourly Weather Sokal

Today, 25 September, Friday

Time Temperature Precipitation Wind Pressure Humidity
00:00 +16°C° 0 mm 3 mps 740 mmHg 85%
01:00 +16°C° 0 mm 2 mps 740 mmHg 86%
02:00 +15°C° 0 mm 2 mps 740 mmHg 88%
03:00 +15°C° 0 mm 2 mps 739 mmHg 87%
04:00 +15°C° 0 mm 2 mps 739 mmHg 87%
05:00 +15°C° 0 mm 2 mps 739 mmHg 87%
06:00 +16°C° 0 mm 3 mps 739 mmHg 85%
07:00 +16°C° 0 mm 3 mps 738 mmHg 82%
08:00 +17°C° 0 mm 3 mps 738 mmHg 78%
09:00 +19°C° 0 mm 3 mps 738 mmHg 71%
10:00 +21°C° 0 mm 4 mps 738 mmHg 65%
11:00 +23°C° 0 mm 4 mps 738 mmHg 58%
12:00 +25°C° 0 mm 4 mps 737 mmHg 55%
13:00 +25°C° 0 mm 4 mps 737 mmHg 52%
14:00 +26°C° 0 mm 5 mps 736 mmHg 49%
15:00 +25°C° 0 mm 4 mps 736 mmHg 53%
16:00 +23°C° 0 mm 4 mps 735 mmHg 56%
17:00 +24°C° 0 mm 3 mps 735 mmHg 60%
18:00 +22°C° 0 mm 4 mps 734 mmHg 62%
19:00 +21°C° 0 mm 4 mps 734 mmHg 63%
20:00 +20°C° 0 mm 4 mps 734 mmHg 65%
21:00 +19°C° 0 mm 4 mps 734 mmHg 64%
22:00 +19°C° 0 mm 4 mps 733 mmHg 63%
23:00 +19°C° 0 mm 4 mps 733 mmHg 62%

Tomorrow, 26 September, Saturday

Time Temperature Precipitation Wind Pressure Humidity
00:00 +19°C° 0 mm 3 mps 733 mmHg 63%
01:00 +18°C° 0 mm 3 mps 732 mmHg 64%
02:00 +18°C° 0 mm 3 mps 732 mmHg 65%
03:00 +18°C° 0 mm 3 mps 732 mmHg 65%
04:00 +18°C° 0 mm 4 mps 732 mmHg 65%
05:00 +18°C° 0 mm 4 mps 731 mmHg 64%
06:00 +17°C° 0 mm 5 mps 731 mmHg 68%
07:00 +17°C° 0 mm 6 mps 731 mmHg 71%
08:00 +17°C° 0 mm 7 mps 731 mmHg 75%
09:00 +20°C° 0 mm 7 mps 731 mmHg 71%
10:00 +21°C° 0 mm 8 mps 731 mmHg 67%
11:00 +22°C° 0 mm 9 mps 731 mmHg 62%
12:00 +23°C° 0 mm 9 mps 731 mmHg 62%
13:00 +24°C° 0 mm 9 mps 730 mmHg 61%
14:00 +24°C° 0 mm 9 mps 730 mmHg 60%
15:00 +23°C° 0.8 mm 8 mps 730 mmHg 64%
16:00 +22°C° 0.8 mm 7 mps 730 mmHg 69%
17:00 +21°C° 0.8 mm 5 mps 730 mmHg 73%
18:00 +19°C° 1.4 mm 5 mps 730 mmHg 79%
19:00 +18°C° 1.4 mm 4 mps 730 mmHg 84%
20:00 +15°C° 1.4 mm 4 mps 730 mmHg 89%
21:00 +16°C° 2.6 mm 3 mps 730 mmHg 91%
22:00 +14°C° 2.6 mm 3 mps 730 mmHg 93%
23:00 +14°C° 2.6 mm 3 mps 730 mmHg 96%

Day after tomorrow, 27 September, Sunday

Time Temperature Precipitation Wind Pressure Humidity
00:00 +14°C° 2.8 mm 3 mps 730 mmHg 96%
01:00 +16°C° 2.8 mm 3 mps 730 mmHg 96%
02:00 +16°C° 2.8 mm 3 mps 730 mmHg 96%
03:00 +15°C° 3.1 mm 4 mps 729 mmHg 95%
04:00 +15°C° 3.1 mm 4 mps 729 mmHg 95%
05:00 +16°C° 3.1 mm 5 mps 729 mmHg 94%
06:00 +15°C° 3.5 mm 6 mps 729 mmHg 94%
07:00 +14°C° 3.5 mm 7 mps 729 mmHg 93%
08:00 +12°C° 3.5 mm 8 mps 729 mmHg 93%
09:00 +11°C° 0.8 mm 8 mps 730 mmHg 91%
10:00 +10°C° 0.8 mm 7 mps 731 mmHg 90%
11:00 +10°C° 0.8 mm 7 mps 732 mmHg 88%
12:00 +9°C° 0.6 mm 7 mps 733 mmHg 88%
13:00 +9°C° 0.6 mm 7 mps 734 mmHg 88%
14:00 +9°C° 0.6 mm 7 mps 735 mmHg 88%
15:00 +9°C° 0 mm 6 mps 736 mmHg 86%
16:00 +10°C° 0 mm 5 mps 737 mmHg 84%
17:00 +11°C° 0 mm 4 mps 738 mmHg 83%
18:00 +10°C° 0 mm 3 mps 739 mmHg 85%
19:00 +10°C° 0 mm 3 mps 739 mmHg 88%
20:00 +9°C° 0 mm 2 mps 740 mmHg 90%
21:00 +9°C° 0 mm 3 mps 741 mmHg 90%
22:00 +9°C° 0 mm 3 mps 741 mmHg 90%
23:00 +8°C° 0 mm 4 mps 742 mmHg 90%

28 September, Monday

Time Temperature Precipitation Wind Pressure Humidity
00:00 +8°C° 0 mm 4 mps 742 mmHg 88%
01:00 +8°C° 0 mm 3 mps 742 mmHg 87%
02:00 +8°C° 0 mm 3 mps 742 mmHg 85%
03:00 +8°C° 0 mm 3 mps 742 mmHg 85%
04:00 +8°C° 0 mm 2 mps 742 mmHg 84%
05:00 +8°C° 0 mm 2 mps 743 mmHg 84%
06:00 +8°C° 0 mm 3 mps 743 mmHg 83%
07:00 +9°C° 0 mm 3 mps 743 mmHg 82%
08:00 +10°C° 0 mm 3 mps 743 mmHg 81%
09:00 +11°C° 0 mm 4 mps 743 mmHg 79%
10:00 +13°C° 0 mm 4 mps 743 mmHg 77%
11:00 +15°C° 0 mm 5 mps 743 mmHg 75%
12:00 +16°C° 0 mm 5 mps 742 mmHg 72%
13:00 +17°C° 0 mm 4 mps 742 mmHg 70%
14:00 +18°C° 0 mm 4 mps 742 mmHg 67%
15:00 +18°C° 0 mm 4 mps 742 mmHg 70%
16:00 +18°C° 0 mm 3 mps 741 mmHg 72%
17:00 +17°C° 0 mm 2 mps 741 mmHg 74%
18:00 +17°C° 0.1 mm 3 mps 741 mmHg 76%
19:00 +16°C° 0.1 mm 3 mps 741 mmHg 78%
20:00 +14°C° 0.1 mm 3 mps 740 mmHg 80%
21:00 +14°C° 0.2 mm 3 mps 740 mmHg 83%
22:00 +14°C° 0.2 mm 4 mps 740 mmHg 87%
23:00 +13°C° 0.2 mm 4 mps 740 mmHg 90%

29 September, Tuesday

Time Temperature Precipitation Wind Pressure Humidity
00:00 +13°C° 0.2 mm 3 mps 740 mmHg 91%
01:00 +13°C° 0.2 mm 3 mps 740 mmHg 92%
02:00 +14°C° 0.2 mm 2 mps 740 mmHg 93%
03:00 +13°C° 0 mm 2 mps 740 mmHg 93%
04:00 +12°C° 0 mm 1 mps 740 mmHg 93%
05:00 +12°C° 0 mm 1 mps 740 mmHg 93%
06:00 +12°C° 0 mm 1 mps 740 mmHg 92%
07:00 +13°C° 0 mm 2 mps 740 mmHg 91%
08:00 +13°C° 0 mm 2 mps 740 mmHg 90%
09:00 +14°C° 0 mm 2 mps 740 mmHg 87%
10:00 +15°C° 0 mm 2 mps 740 mmHg 84%
11:00 +16°C° 0 mm 2 mps 740 mmHg 81%
12:00 +16°C° 0.1 mm 2 mps 740 mmHg 81%
13:00 +16°C° 0.1 mm 3 mps 740 mmHg 81%
14:00 +17°C° 0.1 mm 3 mps 740 mmHg 82%
15:00 +16°C° 0.7 mm 3 mps 740 mmHg 86%
16:00 +14°C° 0.7 mm 3 mps 740 mmHg 90%
17:00 +14°C° 0.7 mm 4 mps 740 mmHg 94%
18:00 +13°C° 1.7 mm 3 mps 740 mmHg 94%
19:00 +13°C° 1.7 mm 3 mps 740 mmHg 95%
20:00 +13°C° 1.7 mm 2 mps 740 mmHg 96%
21:00 +12°C° 1.1 mm 3 mps 739 mmHg 95%
22:00 +12°C° 1.1 mm 4 mps 739 mmHg 95%
23:00 +12°C° 1.1 mm 5 mps 739 mmHg 94%

30 September, Wednesday

Time Temperature Precipitation Wind Pressure Humidity
00:00 +11°C° 1.5 mm 6 mps 739 mmHg 94%
01:00 +11°C° 1.5 mm 6 mps 738 mmHg 93%
02:00 +11°C° 1.5 mm 7 mps 738 mmHg 93%
03:00 +11°C° 1.4 mm 7 mps 738 mmHg 93%
04:00 +11°C° 1.4 mm 7 mps 738 mmHg 93%
05:00 +11°C° 1.4 mm 7 mps 737 mmHg 93%
06:00 +11°C° 0.7 mm 7 mps 737 mmHg 93%
07:00 +11°C° 0.7 mm 6 mps 737 mmHg 92%
08:00 +11°C° 0.7 mm 6 mps 737 mmHg 92%
09:00 +11°C° 0.8 mm 6 mps 737 mmHg 92%
10:00 +11°C° 0.8 mm 6 mps 737 mmHg 92%
11:00 +11°C° 0.8 mm 6 mps 737 mmHg 91%
12:00 +11°C° 2.3 mm 6 mps 737 mmHg 92%
13:00 +12°C° 2.3 mm 5 mps 737 mmHg 92%
14:00 +12°C° 2.3 mm 5 mps 737 mmHg 93%
15:00 +11°C° 0.9 mm 4 mps 737 mmHg 93%
16:00 +11°C° 0.9 mm 4 mps 737 mmHg 93%
17:00 +11°C° 0.9 mm 4 mps 737 mmHg 93%
18:00 +11°C° 0.5 mm 4 mps 737 mmHg 93%
19:00 +11°C° 0.5 mm 4 mps 737 mmHg 94%
20:00 +11°C° 0.5 mm 3 mps 737 mmHg 95%
21:00 +11°C° 0.1 mm 3 mps 737 mmHg 95%
22:00 +11°C° 0.1 mm 3 mps 738 mmHg 96%
23:00 +11°C° 0.1 mm 3 mps 738 mmHg 96%
Show more